CW1621 Weather Reports


Display with metric or nautical units.
time (UTC)temp
F
wind
direction
speed
MPH
gust
MPH
rain 1hr
in
rain 24hr
in
rain mn
in
humidity
%
barometer
mb
20260903131104 49 271 1.0 3.0 0.01 0.26 0.21 94 1013.1
20260903130603 49 271 2.0 3.0 0.01 0.26 0.21 94 1012.9
20260903125604 49 271 2.0 3.0 0.01 0.26 0.21 94 1012.6
20260903125103 49 271 1.0 3.0 0.01 0.26 0.21 94 1012.6
20260903124604 49 271 3.0 3.0 0.01 0.26 0.21 93 1012.6
20260903124104 49 271 3.0 5.0 0.01 0.26 0.21 93 1012.6
20260903123603 49 271 5.0 6.0 0.01 0.26 0.21 94 1012.6
20260903123103 49 271 5.0 6.0 0.01 0.26 0.21 94 1012.5
20260903122604 49 271 5.0 6.0 0.01 0.26 0.21 94 1012.5
20260903122103 49 271 6.0 6.0 0.02 0.26 0.21 94 1012.5
20260903121603 49 271 5.0 7.0 0.02 0.26 0.21 94 1012.5
20260903121104 49 271 3.0 6.0 0.01 0.25 0.20 95 1012.5
20260903120603 49 271 3.0 6.0 0.01 0.25 0.20 95 1012.4
20260903115604 49 271 2.0 3.0 0.01 0.25 0.20 94 1012.5
20260903115103 49 271 1.0 2.0 0.01 0.25 0.20 94 1012.4
20260903114603 49 271 1.0 2.0 0.01 0.25 0.20 94 1012.4
20260903114103 49 271 3.0 6.0 0.01 0.25 0.20 94 1012.4
20260903113603 49 271 5.0 6.0 0.01 0.25 0.20 94 1012.4
20260903112604 49 270 2.0 3.0 0.01 0.25 0.20 96 1012.3
20260903112103 49 270 2.0 6.0 0.01 0.24 0.19 96 1012.2
20260903111604 50 204 1.0 3.0 0.01 0.24 0.19 96 1011.8
20260903111104 50 184 2.0 2.0 0.01 0.24 0.19 96 1011.8
20260903110103 50 184 1.0 3.0 0.02 0.24 0.19 96 1011.7
20260903105603 50 184 2.0 3.0 0.03 0.24 0.19 96 1011.6
20260903105104 50 184 2.0 3.0 0.03 0.24 0.19 96 1011.6
20260903104603 50 184 3.0 3.0 0.03 0.24 0.19 96 1011.6
20260903103604 50 184 3.0 5.0 0.05 0.24 0.19 96 1011.6
20260903103103 50 187 3.0 5.0 0.05 0.24 0.19 96 1011.6
20260903102604 50 188 3.0 5.0 0.05 0.24 0.19 96 1011.6
20260903102104 50 206 3.0 3.0 0.04 0.23 0.18 96 1011.5
20260903101604 50 206 3.0 3.0 0.04 0.23 0.18 96 1011.5
20260903101103 50 206 0.0 0.0 0.04 0.23 0.18 96 1011.6
20260903100603 50 206 0.0 0.0 0.04 0.23 0.18 96 1011.7
20260903100104 50 206 0.0 0.0 0.03 0.22 0.17 96 1011.7
20260903095603 50 206 0.0 0.0 0.03 0.21 0.16 96 1011.7
20260903095103 50 206 0.0 0.0 0.03 0.21 0.16 95 1011.7
20260903094603 50 206 0.0 0.0 0.03 0.21 0.16 95 1011.6
20260903094104 50 206 0.0 0.0 0.03 0.20 0.15 95 1011.6
20260903093603 50 211 0.0 0.0 0.02 0.19 0.14 95 1011.7
20260903093104 50 242 0.0 0.0 0.02 0.19 0.14 95 1011.7
20260903092604 50 242 0.0 0.0 0.03 0.19 0.14 95 1011.6
20260903092104 50 242 0.0 0.0 0.03 0.19 0.14 95 1011.6
20260903091604 50 242 0.0 0.0 0.03 0.19 0.14 95 1011.6
20260903091103 50 242 0.0 0.0 0.04 0.19 0.14 95 1011.8
20260903090603 50 242 0.0 0.0 0.05 0.19 0.14 95 1011.9
20260903085603 50 240 0.0 1.0 0.07 0.18 0.13 95 1012.1
20260903085103 50 240 0.0 0.0 0.07 0.18 0.13 95 1012.1
20260903084604 50 240 0.0 0.0 0.07 0.18 0.13 94 1012.2
20260903084103 50 240 0.0 0.0 0.06 0.17 0.12 94 1012.3
20260903083104 50 240 1.0 2.0 0.08 0.17 0.12 95 1012.2
20260903082603 50 240 0.0 2.0 0.07 0.16 0.11 95 1012.2
20260903082103 50 240 1.0 3.0 0.08 0.16 0.11 94 1012.2
20260903081604 50 235 1.0 3.0 0.09 0.16 0.11 94 1012.2
20260903081104 50 235 3.0 5.0 0.09 0.15 0.10 94 1012.3
20260903080603 50 335 0.0 0.0 0.09 0.14 0.09 93 1012.3
20260903080104 50 15 0.0 0.0 0.08 0.13 0.08 93 1012.4
20260903075604 50 15 1.0 3.0 0.01 0.11 0.06 93 1012.4
20260903074603 50 29 3.0 3.0 0.02 0.11 0.06 92 1012.1
20260903074103 51 25 1.0 3.0 0.02 0.11 0.06 92 1012.2
20260903073104 51 349 1.0 3.0 0.00 0.09 0.04 91 1012.1
20260903072604 51 356 1.0 3.0 0.00 0.09 0.04 91 1012.2
20260903072103 51 0 1.0 3.0 0.04 0.08 0.03 91 1012.0
20260903071603 51 4 2.0 3.0 0.03 0.07 0.02 90 1012.1
20260903071105 51 348 1.0 6.0 0.02 0.06 0.01 90 1012.2
20260903070604 51 24 2.0 3.0 0.01 0.05 0.00 90 1012.4
20260903070103 52 350 2.0 3.0 0.01 0.05 0.00 89 1012.3
20260903065603 52 311 0.0 2.0 0.01 0.05 0.05 88 1012.6
20260903064604 52 225 1.0 5.0 0.00 0.04 0.04 87 1012.5
20260903064104 52 24 3.0 6.0 0.00 0.04 0.04 86 1012.2
20260903063603 52 29 2.0 5.0 0.00 0.04 0.04 86 1012.3
20260903063103 52 26 1.0 3.0 0.00 0.04 0.04 86 1012.3
20260903062603 52 11 1.0 2.0 0.00 0.04 0.04 86 1012.2
20260903062104 52 11 0.0 0.0 0.00 0.04 0.04 86 1012.2
20260903061603 52 11 0.0 0.0 0.00 0.04 0.04 85 1012.2
20260903061104 52 6 0.0 0.0 0.00 0.04 0.04 85 1012.2
20260903060604 52 5 1.0 3.0 0.00 0.04 0.04 85 1012.3
20260903060104 52 4 2.0 3.0 0.00 0.04 0.04 85 1012.3
20260903055603 52 340 1.0 3.0 0.00 0.04 0.04 85 1012.3
20260903054604 52 342 1.0 3.0 0.00 0.04 0.04 85 1012.2
20260903053604 53 342 1.0 2.0 0.00 0.04 0.04 85 1012.3
20260903053103 53 308 1.0 3.0 0.00 0.04 0.04 85 1012.3
20260903052603 53 287 2.0 6.0 0.00 0.04 0.04 85 1012.4
20260903052103 53 272 1.0 3.0 0.00 0.04 0.04 84 1012.4
20260903051604 53 288 0.0 0.0 0.00 0.04 0.04 84 1012.3
20260903050105 53 310 2.0 5.0 0.00 0.04 0.04 83 1012.4
20260903045603 53 316 2.0 5.0 0.00 0.04 0.04 83 1012.2
20260903045105 54 332 2.0 5.0 0.00 0.04 0.04 83 1012.1
20260903044603 54 32 1.0 3.0 0.00 0.04 0.04 83 1012.1
20260903044104 54 2 3.0 6.0 0.00 0.04 0.04 83 1012.1
20260903043103 54 340 2.0 3.0 0.00 0.04 0.04 82 1012.2
20260903042603 54 306 2.0 5.0 0.00 0.04 0.04 82 1012.1
20260903042104 55 306 2.0 3.0 0.00 0.04 0.04 81 1012.1
20260903041604 55 287 3.0 5.0 0.00 0.04 0.04 80 1012.1
20260903041103 55 301 6.0 12.0 0.00 0.04 0.04 81 1012.0
20260903040605 55 280 6.0 12.0 0.00 0.04 0.04 81 1011.8
20260903035603 56 284 6.0 10.0 0.00 0.04 0.04 80 1011.5
20260903035104 56 287 7.0 12.0 0.00 0.04 0.04 80 1011.4
20260903034603 56 289 7.0 13.0 0.00 0.04 0.04 80 1011.4
20260903034104 56 290 7.0 12.0 0.00 0.04 0.04 80 1011.4
20260903033602 56 294 7.0 14.0 0.00 0.04 0.04 79 1011.3
20260903032603 57 281 10.0 18.0 0.00 0.04 0.04 77 1010.9
20260903032102 57 286 8.0 15.0 0.00 0.04 0.04 76 1010.7
20260903031603 57 284 5.0 12.0 0.00 0.04 0.04 76 1010.7
20260903031103 58 286 12.0 15.0 0.00 0.04 0.04 76 1010.7
20260903030603 59 303 6.0 10.0 0.00 0.04 0.04 73 1010.2
20260903025103 60 283 10.0 17.0 0.00 0.04 0.04 69 1010.0
20260903024602 60 288 12.0 15.0 0.00 0.04 0.04 68 1009.9
20260903024103 60 290 11.0 14.0 0.00 0.04 0.04 68 1009.9
20260903023602 61 290 14.0 22.0 0.00 0.04 0.04 67 1009.7
20260903023102 61 285 14.0 20.0 0.00 0.04 0.04 67 1009.7
20260903022102 61 294 6.0 13.0 0.00 0.04 0.04 68 1009.5
20260903020603 62 283 5.0 10.0 0.00 0.04 0.04 71 1009.5
20260903015603 62 56 1.0 3.0 0.00 0.04 0.04 71 1009.3
20260903015103 62 63 0.0 0.0 0.00 0.04 0.04 69 1009.3
20260903014102 63 63 0.0 0.0 0.00 0.04 0.04 68 1008.9
20260903013603 63 63 0.0 0.0 0.00 0.04 0.04 69 1009.0
20260903013102 63 63 0.0 3.0 0.00 0.04 0.04 69 1009.0
20260903012602 63 63 2.0 3.0 0.00 0.04 0.04 69 1008.8
20260903012103 63 63 2.0 3.0 0.00 0.04 0.04 68 1008.8
20260903011602 63 65 0.0 0.0 0.00 0.04 0.04 68 1008.8
20260903011103 63 65 0.0 1.0 0.00 0.04 0.04 68 1008.8
20260903010602 63 65 1.0 3.0 0.00 0.04 0.04 68 1008.8
20260903005602 63 64 2.0 3.0 0.00 0.04 0.04 68 1008.8
20260903005102 63 63 2.0 5.0 0.00 0.04 0.04 68 1008.8
20260903004603 63 62 3.0 6.0 0.00 0.04 0.04 68 1008.8
20260903004103 63 66 5.0 7.0 0.00 0.04 0.04 68 1008.8
20260903003602 63 55 5.0 7.0 0.00 0.04 0.04 68 1008.9
20260903003102 63 65 2.0 3.0 0.00 0.04 0.04 67 1008.8
20260903002602 63 63 2.0 3.0 0.00 0.04 0.04 67 1008.8
20260903001603 64 56 5.0 9.0 0.00 0.04 0.04 67 1008.9
20260903001102 64 58 5.0 7.0 0.00 0.04 0.04 67 1009.0
20260903000603 63 74 5.0 7.0 0.00 0.04 0.04 67 1009.3
20260902235603 64 71 9.0 12.0 0.00 0.04 0.04 67 1009.1
20260902235102 64 79 7.0 12.0 0.00 0.04 0.04 66 1009.0
20260902234102 64 50 5.0 12.0 0.00 0.04 0.04 67 1009.1
20260902233102 63 76 5.0 12.0 0.00 0.04 0.04 68 1009.4
20260902232102 64 83 5.0 9.0 0.00 0.04 0.04 66 1009.2
20260902231102 64 56 6.0 13.0 0.00 0.04 0.04 67 1009.2
20260902230603 64 34 9.0 13.0 0.00 0.04 0.04 67 1009.1
20260902225603 64 62 5.0 13.0 0.00 0.04 0.04 67 1009.2
20260902225102 64 73 12.0 16.0 0.00 0.04 0.04 68 1009.2
20260902224602 64 88 10.0 15.0 0.00 0.04 0.04 67 1009.1
20260902223603 64 66 8.0 14.0 0.00 0.04 0.04 68 1009.2
20260902223102 64 67 10.0 14.0 0.00 0.04 0.04 68 1009.2
20260902222603 64 69 12.0 15.0 0.00 0.04 0.04 68 1009.3
20260902222104 64 74 10.0 16.0 0.00 0.04 0.04 66 1009.3
20260902221602 64 85 10.0 15.0 0.00 0.04 0.04 67 1009.4
20260902220603 63 98 10.0 14.0 0.00 0.04 0.04 68 1009.3
20260902215602 63 77 6.0 15.0 0.00 0.04 0.04 68 1009.4
20260902215103 62 84 7.0 14.0 0.00 0.04 0.04 70 1009.8
20260902214602 62 73 10.0 17.0 0.00 0.04 0.04 68 1009.8
20260902214103 62 83 8.0 13.0 0.00 0.04 0.04 70 1009.9
20260902213603 62 75 7.0 14.0 0.00 0.04 0.04 68 1010.0
20260902213102 62 96 11.0 14.0 0.00 0.04 0.04 68 1010.1
20260902212602 62 97 10.0 14.0 0.00 0.04 0.04 70 1010.2
20260902212103 62 98 11.0 15.0 0.00 0.04 0.04 70 1010.2
20260902211603 61 94 9.0 14.0 0.00 0.04 0.04 70 1010.3
20260902210602 61 91 9.0 15.0 0.00 0.04 0.04 70 1010.8
20260902205602 61 87 11.0 18.0 0.00 0.04 0.04 68 1011.0
20260902205103 60 92 13.0 17.0 0.00 0.04 0.04 70 1011.0
20260902204602 60 98 14.0 20.0 0.00 0.04 0.04 69 1011.1
20260902204103 60 94 14.0 20.0 0.00 0.04 0.04 69 1011.1
20260902203602 60 92 14.0 20.0 0.00 0.04 0.04 74 1011.1
20260902203102 60 104 9.0 18.0 0.00 0.04 0.04 76 1011.2
20260902202603 59 102 6.0 15.0 0.00 0.04 0.04 78 1011.4
20260902201103 58 63 9.0 15.0 0.00 0.04 0.04 81 1011.5
20260902200603 58 118 7.0 12.0 0.00 0.04 0.04 80 1011.6
20260902195102 57 106 8.0 13.0 0.00 0.04 0.04 84 1012.1
20260902194602 57 123 7.0 12.0 0.00 0.04 0.04 85 1012.1
20260902194102 56 114 7.0 12.0 0.00 0.04 0.04 86 1012.1
20260902193603 56 148 8.0 13.0 0.00 0.04 0.04 87 1012.2
20260902193103 55 109 7.0 12.0 0.00 0.04 0.04 91 1012.6
20260902192602 54 115 9.0 13.0 0.00 0.04 0.04 89 1012.9
20260902192102 54 111 9.0 12.0 0.00 0.04 0.04 89 1013.0
20260902191602 54 121 8.0 10.0 0.00 0.04 0.04 90 1013.1
20260902191102 53 102 8.0 12.0 0.00 0.04 0.04 91 1013.2
20260902190603 53 98 9.0 12.0 0.00 0.04 0.04 91 1013.2
20260902185602 52 134 6.0 10.0 0.00 0.04 0.04 92 1013.2
20260902185103 52 98 7.0 10.0 0.00 0.04 0.04 92 1013.3
20260902184602 52 113 7.0 10.0 0.00 0.04 0.04 93 1013.3
20260902183102 51 102 7.0 10.0 0.00 0.04 0.04 93 1013.4
20260902181602 51 125 6.0 9.0 0.00 0.04 0.04 92 1013.5
20260902181103 51 121 7.0 9.0 0.00 0.04 0.04 92 1013.4
20260902180602 51 119 8.0 12.0 0.00 0.04 0.04 92 1013.3
20260902175603 51 104 6.0 10.0 0.00 0.04 0.04 91 1013.3
20260902175102 51 136 7.0 10.0 0.00 0.04 0.04 91 1013.3
20260902174603 51 134 7.0 10.0 0.00 0.04 0.04 91 1013.3
20260902174103 51 139 9.0 12.0 0.01 0.04 0.04 90 1013.5
20260902173603 51 156 3.0 9.0 0.01 0.04 0.04 91 1013.4
20260902173102 51 161 4.0 7.0 0.01 0.04 0.04 91 1013.4
20260902172603 50 177 3.0 6.0 0.01 0.04 0.04 91 1013.4
20260902172102 50 125 2.0 3.0 0.01 0.04 0.04 90 1013.3
20260902171603 50 129 3.0 7.0 0.02 0.04 0.04 91 1013.2
20260902171102 50 116 5.0 7.0 0.02 0.04 0.04 91 1013.2
20260902170603 50 88 9.0 12.0 0.03 0.04 0.04 91 1013.0
20260902165602 50 110 12.0 17.0 0.03 0.04 0.04 92 1012.6
20260902165103 49 89 17.0 21.0 0.03 0.04 0.04 91 1012.3
20260902164603 50 84 16.0 23.0 0.04 0.04 0.04 91 1012.0
20260902164102 50 93 18.0 22.0 0.03 0.03 0.03 91 1012.6
20260902163603 50 103 17.0 21.0 0.03 0.03 0.03 91 1012.5
20260902163102 50 96 14.0 17.0 0.03 0.03 0.03 90 1012.4
20260902162602 51 92 16.0 20.0 0.03 0.03 0.03 89 1012.4
20260902161603 51 75 12.0 16.0 0.02 0.02 0.02 86 1012.9
20260902161103 51 89 9.0 12.0 0.02 0.02 0.02 87 1013.2
20260902160602 52 100 8.0 12.0 0.01 0.01 0.01 84 1013.2
20260902160103 52 106 5.0 13.0 0.01 0.01 0.01 84 1013.1
20260902155602 52 94 7.0 13.0 0.01 0.01 0.01 83 1012.8
20260902155103 53 103 5.0 9.0 0.01 0.01 0.01 82 1012.6
20260902154102 53 147 5.0 6.0 0.00 0.00 0.00 81 1012.3
20260902153602 53 203 2.0 3.0 0.00 0.00 0.00 79 1012.2
20260902153103 53 203 3.0 3.0 0.00 0.00 0.00 79 1012.0
20260902152102 53 265 1.0 3.0 0.00 0.00 0.00 78 1011.6
20260902151603 53 267 2.0 6.0 0.00 0.00 0.00 77 1011.7
20260902151103 53 271 4.0 6.0 0.00 0.00 0.00 76 1011.6
20260902150602 53 260 5.0 9.0 0.00 0.00 0.00 75 1011.6
20260902145603 53 259 4.0 5.0 0.00 0.00 0.00 77 1011.7
20260902145102 53 259 2.0 3.0 0.00 0.00 0.00 76 1011.6
20260902144603 53 259 3.0 3.0 0.00 0.00 0.00 75 1011.5
20260902144103 53 259 2.0 3.0 0.00 0.00 0.00 76 1011.4
20260902143603 53 259 3.0 5.0 0.00 0.00 0.00 75 1011.5
20260902143102 53 259 5.0 6.0 0.00 0.00 0.00 75 1011.3
20260902142605 53 253 5.0 5.0 0.00 0.00 0.00 76 1011.3
20260902142102 53 253 2.0 5.0 0.00 0.00 0.00 75 1011.1
20260902141602 53 253 5.0 8.0 0.00 0.00 0.00 73 1011.0
20260902140603 53 246 6.0 9.0 0.00 0.00 0.00 73 1010.8
20260902140103 53 193 5.0 15.0 0.00 0.00 0.00 74 1010.9
20260902135603 52 146 12.0 15.0 0.00 0.00 0.00 75 1011.1
20260902134603 52 354 4.0 12.0 0.00 0.00 0.00 76 1009.2
20260902134103 52 321 6.0 14.0 0.00 0.00 0.00 75 1008.9
20260902133602 53 296 3.0 9.0 0.00 0.00 0.00 74 1008.9
20260902133102 53 323 5.0 8.0 0.00 0.00 0.00 73 1009.4
20260902132603 53 308 2.0 5.0 0.00 0.00 0.00 72 1009.9
20260902132103 53 319 0.0 2.0 0.00 0.00 0.00 72 1010.2
20260902131603 53 319 0.0 3.0 0.00 0.00 0.00 72 1009.9